FW1691 Weather Reports


Display with metric or nautical units.
time (UTC)temp
F
wind
direction
speed
MPH
gust
MPH
rain 1hr
in
rain 24hr
in
rain mn
in
humidity
%
barometer
mb
20260906143045 68 29 1.0 5.0 0.00 0.01 0.00 94 1020.7
20260906142520 68 128 1.0 10.0 0.00 0.01 0.00 95 1020.6
20260906142023 68 225 3.0 10.0 0.00 0.01 0.00 95 1020.6
20260906141543 68 117 1.0 6.0 0.00 0.01 0.00 96 1020.7
20260906141021 67 112 2.0 6.0 0.00 0.01 0.00 95 1020.8
20260906140519 67 133 3.0 6.0 0.00 0.01 0.00 95 1020.8
20260906140038 67 177 1.0 6.0 0.00 0.01 0.00 96 1020.7
20260906135517 67 138 2.0 6.0 0.00 0.01 0.00 96 1020.8
20260906135020 67 98 2.0 6.0 0.00 0.01 0.00 96 1020.8
20260906134605 67 126 2.0 4.0 0.00 0.01 0.00 96 1020.7
20260906134020 67 132 0.0 6.0 0.00 0.01 0.00 96 1020.7
20260906133516 67 167 1.0 6.0 0.00 0.01 0.00 97 1020.6
20260906133048 67 169 1.0 5.0 0.00 0.01 0.00 97 1020.6
20260906132519 67 148 1.0 6.0 0.00 0.01 0.00 97 1020.5
20260906132020 66 193 1.0 7.0 0.00 0.01 0.00 97 1020.4
20260906131537 66 159 2.0 8.0 0.00 0.01 0.00 97 1020.4
20260906131020 66 122 1.0 8.0 0.00 0.01 0.00 97 1020.5
20260906130520 66 134 2.0 8.0 0.00 0.01 0.00 97 1020.4
20260906130042 66 178 2.0 6.0 0.00 0.01 0.00 97 1020.3
20260906125520 66 179 2.0 7.0 0.00 0.01 0.00 97 1020.3
20260906125025 66 157 2.0 7.0 0.00 0.01 0.00 97 1020.2
20260906124541 66 181 1.0 7.0 0.00 0.01 0.00 97 1020.2
20260906124018 66 109 1.0 5.0 0.00 0.01 0.00 97 1020.2
20260906123519 66 127 1.0 5.0 0.00 0.01 0.00 97 1020.2
20260906123051 66 162 1.0 4.0 0.00 0.01 0.00 97 1020.2
20260906122520 66 134 1.0 6.0 0.00 0.01 0.00 97 1020.2
20260906122018 66 118 1.0 6.0 0.00 0.01 0.00 97 1020.2
20260906121542 66 184 1.0 6.0 0.00 0.01 0.00 97 1020.1
20260906121017 66 0 1.0 6.0 0.00 0.01 0.00 97 1020.2
20260906120520 66 118 0.0 4.0 0.00 0.01 0.00 97 1020.1
20260906120041 66 127 1.0 4.0 0.00 0.01 0.00 97 1020.0
20260906115521 66 40 1.0 5.0 0.00 0.01 0.00 97 1020.0
20260906115022 66 0 1.0 5.0 0.00 0.01 0.00 97 1020.0
20260906114539 66 140 1.0 5.0 0.00 0.01 0.00 97 1020.0
20260906114018 66 159 1.0 6.0 0.00 0.01 0.00 97 1020.0
20260906113518 66 69 2.0 6.0 0.00 0.01 0.00 97 1020.0
20260906113037 66 117 1.0 12.0 0.00 0.01 0.00 97 1019.9
20260906112524 66 184 3.0 12.0 0.00 0.01 0.00 97 1019.6
20260906112019 66 178 3.0 9.0 0.00 0.01 0.00 97 1019.5
20260906111538 66 161 1.0 5.0 0.00 0.01 0.00 97 1019.4
20260906111017 66 186 1.0 6.0 0.00 0.01 0.00 97 1019.3
20260906110517 66 143 2.0 6.0 0.00 0.01 0.00 97 1019.2
20260906110048 66 184 1.0 7.0 0.00 0.01 0.00 97 1019.2
20260906105522 66 156 1.0 7.0 0.00 0.01 0.00 97 1019.2
20260906105020 66 146 1.0 5.0 0.00 0.01 0.00 97 1019.2
20260906104540 66 152 0.0 3.0 0.00 0.01 0.00 97 1019.1
20260906104016 65 0 0.0 4.0 0.00 0.01 0.00 97 1019.2
20260906103516 65 127 1.0 4.0 0.00 0.01 0.00 97 1019.2
20260906103054 66 0 1.0 7.0 0.00 0.01 0.00 96 1019.2
20260906102519 66 140 2.0 7.0 0.00 0.01 0.00 96 1019.1
20260906102024 66 126 4.0 10.0 0.00 0.01 0.00 96 1019.1
20260906101536 66 98 3.0 10.0 0.00 0.01 0.00 96 1019.1
20260906101017 66 94 5.0 10.0 0.00 0.01 0.00 97 1019.0
20260906100523 66 113 4.0 7.0 0.00 0.01 0.00 97 1018.9
20260906100040 66 106 2.0 4.0 0.00 0.01 0.00 96 1019.1
20260906095520 66 157 0.0 3.0 0.00 0.01 0.00 96 1019.2
20260906095020 66 144 0.0 2.0 0.00 0.01 0.00 96 1019.0
20260906094538 66 123 1.0 2.0 0.00 0.01 0.00 96 1018.8
20260906094018 66 0 0.0 3.0 0.00 0.01 0.00 96 1018.8
20260906093522 66 141 1.0 6.0 0.00 0.01 0.00 96 1018.7
20260906093040 66 0 1.0 6.0 0.00 0.01 0.00 96 1018.6
20260906092520 66 0 0.0 3.0 0.00 0.01 0.00 96 1018.4
20260906092026 66 0 1.0 3.0 0.00 0.01 0.00 95 1018.4
20260906091541 66 136 1.0 3.0 0.00 0.01 0.00 95 1018.5
20260906091020 66 139 1.0 3.0 0.00 0.01 0.00 95 1018.5
20260906090518 66 0 0.0 3.0 0.00 0.01 0.00 95 1018.4
20260906090056 66 111 1.0 3.0 0.00 0.01 0.00 95 1018.5
20260906085518 67 0 1.0 3.0 0.00 0.01 0.00 95 1018.4
20260906085017 67 0 0.0 4.0 0.00 0.01 0.00 95 1018.5
20260906084542 67 109 1.0 4.0 0.00 0.01 0.00 95 1018.4
20260906084017 67 133 0.0 2.0 0.00 0.01 0.00 94 1018.4
20260906083517 67 0 0.0 2.0 0.00 0.01 0.00 94 1018.3
20260906083039 67 0 0.0 2.0 0.00 0.01 0.00 94 1018.5
20260906082520 67 0 0.0 3.0 0.00 0.01 0.00 94 1018.5
20260906082023 67 0 0.0 3.0 0.00 0.01 0.00 94 1018.4
20260906081542 67 119 1.0 3.0 0.00 0.01 0.00 94 1018.5
20260906081017 67 138 1.0 3.0 0.00 0.01 0.00 94 1018.6
20260906080521 68 0 0.0 6.0 0.00 0.01 0.00 94 1018.6
20260906080037 68 117 2.0 6.0 0.00 0.01 0.00 94 1018.6
20260906075520 68 100 2.0 8.0 0.00 0.01 0.00 94 1018.6
20260906075020 68 108 2.0 8.0 0.00 0.01 0.00 94 1018.7
20260906074536 68 109 4.0 8.0 0.00 0.01 0.00 93 1018.7
20260906074018 68 105 4.0 8.0 0.00 0.01 0.00 93 1018.6
20260906073521 68 103 4.0 9.0 0.00 0.01 0.00 93 1018.6
20260906073055 68 103 4.0 9.0 0.00 0.01 0.00 93 1018.6
20260906072520 68 124 6.0 9.0 0.00 0.01 0.00 93 1018.5
20260906072027 68 93 3.0 9.0 0.00 0.01 0.00 93 1018.5
20260906071540 68 124 4.0 9.0 0.00 0.01 0.00 94 1018.7
20260906071020 68 85 4.0 9.0 0.00 0.01 0.00 94 1018.6
20260906070518 68 92 4.0 8.0 0.00 0.01 0.00 94 1018.6
20260906070044 68 107 4.0 7.0 0.00 0.01 0.00 94 1018.6
20260906065523 68 92 4.0 8.0 0.00 0.01 0.00 94 1018.6
20260906065015 68 109 4.0 8.0 0.00 0.01 0.00 93 1018.7
20260906064539 68 112 4.0 8.0 0.00 0.01 0.00 93 1018.8
20260906064022 68 107 4.0 8.0 0.00 0.01 0.00 93 1018.8
20260906063518 68 103 5.0 8.0 0.00 0.01 0.00 94 1018.9
20260906063048 68 96 3.0 7.0 0.00 0.01 0.00 94 1019.1
20260906062523 69 100 2.0 6.0 0.00 0.01 0.00 94 1019.1
20260906062017 69 101 2.0 6.0 0.00 0.01 0.00 94 1019.2
20260906061543 69 114 1.0 4.0 0.00 0.01 0.00 93 1019.1
20260906061021 69 106 1.0 4.0 0.00 0.01 0.00 93 1019.0
20260906060517 69 103 2.0 4.0 0.00 0.01 0.00 93 1018.9
20260906060037 69 132 0.0 3.0 0.00 0.01 0.00 93 1018.9
20260906055524 69 0 0.0 3.0 0.00 0.02 0.00 93 1019.0
20260906055020 69 132 0.0 2.0 0.00 0.02 0.00 93 1019.0
20260906054538 69 0 0.0 3.0 0.00 0.02 0.00 93 1018.9
20260906054021 70 133 1.0 3.0 0.00 0.02 0.00 93 1018.9
20260906053518 70 131 0.0 3.0 0.00 0.02 0.00 92 1018.8
20260906053036 70 0 0.0 3.0 0.00 0.02 0.00 92 1018.9
20260906052524 70 123 0.0 2.0 0.00 0.02 0.00 92 1018.8
20260906052021 70 123 0.0 2.0 0.00 0.02 0.00 92 1018.9
20260906051555 70 123 0.0 2.0 0.00 0.02 0.00 92 1018.9
20260906051020 70 0 0.0 1.0 0.00 0.02 0.00 91 1018.8
20260906050517 70 0 0.0 2.0 0.00 0.02 0.00 91 1018.8
20260906050049 70 0 0.0 2.0 0.00 0.02 0.00 91 1018.9
20260906045520 70 0 0.0 2.0 0.00 0.02 0.02 91 1019.0
20260906045016 70 0 0.0 2.0 0.00 0.02 0.02 90 1018.9
20260906044547 70 0 0.0 1.0 0.00 0.02 0.02 90 1018.9
20260906044025 71 0 0.0 1.0 0.00 0.02 0.02 90 1019.1
20260906043522 71 0 0.0 1.0 0.00 0.02 0.02 90 1019.1
20260906043047 71 0 0.0 2.0 0.00 0.02 0.02 90 1019.1
20260906042520 71 0 0.0 2.0 0.00 0.02 0.02 90 1019.0
20260906042017 71 0 0.0 2.0 0.00 0.02 0.02 90 1019.2
20260906041540 71 118 0.0 1.0 0.00 0.02 0.02 90 1019.0
20260906041020 71 0 0.0 2.0 0.00 0.02 0.02 91 1019.1
20260906040520 71 0 0.0 3.0 0.00 0.02 0.02 91 1019.0
20260906040039 71 0 1.0 3.0 0.00 0.02 0.02 91 1019.0
20260906035521 71 141 1.0 2.0 0.00 0.02 0.02 92 1018.8
20260906035018 71 144 0.0 1.0 0.00 0.02 0.02 92 1018.9
20260906034545 71 0 0.0 1.0 0.00 0.02 0.02 92 1018.9
20260906034021 71 0 0.0 2.0 0.00 0.02 0.02 92 1019.1
20260906033518 71 0 0.0 3.0 0.00 0.02 0.02 91 1019.0
20260906033037 71 0 1.0 3.0 0.00 0.02 0.02 91 1019.1
20260906032520 71 0 0.0 2.0 0.00 0.02 0.02 91 1019.0
20260906032017 71 0 0.0 2.0 0.00 0.02 0.02 90 1018.9
20260906031545 71 0 0.0 2.0 0.00 0.02 0.02 90 1019.0
20260906031020 72 0 0.0 2.0 0.00 0.02 0.02 90 1018.9
20260906030520 72 0 0.0 2.0 0.00 0.02 0.02 90 1018.7
20260906030038 72 141 0.0 2.0 0.00 0.02 0.02 90 1018.8
20260906025522 72 0 0.0 2.0 0.00 0.02 0.02 90 1018.7
20260906025018 72 0 0.0 2.0 0.00 0.02 0.02 90 1018.5
20260906024537 72 0 0.0 1.0 0.00 0.02 0.02 90 1018.4
20260906024018 72 0 0.0 2.0 0.00 0.02 0.02 90 1018.3
20260906023521 72 141 0.0 2.0 0.00 0.02 0.02 90 1018.2
20260906023040 72 0 0.0 2.0 0.00 0.02 0.02 90 1018.2
20260906022523 72 0 0.0 1.0 0.00 0.02 0.02 89 1018.1
20260906022017 72 0 0.0 1.0 0.00 0.02 0.02 89 1018.0
20260906021538 73 0 0.0 3.0 0.00 0.02 0.02 89 1017.9
20260906021020 73 0 0.0 3.0 0.00 0.02 0.02 89 1017.8
20260906020522 73 141 1.0 3.0 0.00 0.02 0.02 88 1017.8
20260906020037 73 141 1.0 3.0 0.00 0.02 0.02 89 1017.6
20260906015522 73 141 1.0 3.0 0.00 0.02 0.02 88 1017.6
20260906015021 73 0 0.0 2.0 0.00 0.02 0.02 88 1017.5
20260906014537 73 0 0.0 2.0 0.00 0.02 0.02 88 1017.4
20260906014023 73 141 0.0 2.0 0.00 0.02 0.02 87 1017.3
20260906013520 73 0 0.0 2.0 0.00 0.02 0.02 87 1017.2
20260906013058 74 140 0.0 2.0 0.00 0.02 0.02 87 1017.2
20260906012519 74 0 0.0 1.0 0.00 0.02 0.02 86 1017.2
20260906012020 74 0 0.0 1.0 0.00 0.02 0.02 86 1017.1
20260906011545 74 0 0.0 2.0 0.00 0.02 0.02 86 1017.2
20260906011020 74 0 0.0 2.0 0.00 0.02 0.02 86 1017.1
20260906010517 74 140 0.0 2.0 0.00 0.02 0.02 86 1017.2
20260906010041 75 140 1.0 2.0 0.00 0.02 0.02 86 1017.2
20260906005517 75 140 0.0 3.0 0.00 0.02 0.02 85 1017.1
20260906005017 75 140 1.0 3.0 0.00 0.02 0.02 85 1017.1
20260906004538 75 140 1.0 3.0 0.00 0.02 0.02 84 1017.0
20260906004024 75 0 0.0 1.0 0.00 0.02 0.02 84 1016.9
20260906003516 75 0 0.0 3.0 0.00 0.02 0.02 84 1016.7
20260906003039 75 0 0.0 3.0 0.00 0.02 0.02 83 1016.8
20260906002518 75 140 2.0 3.0 0.00 0.02 0.02 82 1016.9
20260906002018 76 122 2.0 3.0 0.00 0.02 0.02 81 1016.8
20260906001541 76 109 0.0 4.0 0.00 0.02 0.02 81 1016.6
20260906001019 77 0 0.0 6.0 0.00 0.02 0.02 81 1016.5
20260906000520 77 0 1.0 6.0 0.00 0.02 0.02 80 1016.4
20260906000047 76 130 1.0 7.0 0.00 0.02 0.02 81 1016.4
20260905235523 76 114 2.0 7.0 0.00 0.02 0.02 81 1016.3
20260905235021 76 95 3.0 7.0 0.00 0.02 0.02 81 1016.5
20260905234538 76 110 2.0 6.0 0.00 0.02 0.02 80 1016.5
20260905234019 76 101 3.0 9.0 0.00 0.02 0.02 80 1016.6
20260905233520 77 103 3.0 10.0 0.00 0.02 0.02 79 1016.5
20260905233042 77 76 4.0 10.0 0.00 0.02 0.02 79 1016.4
20260905232518 77 72 4.0 9.0 0.00 0.02 0.02 79 1016.5
20260905232018 77 124 4.0 10.0 0.00 0.02 0.02 78 1016.5
20260905231539 77 88 2.0 10.0 0.00 0.02 0.02 79 1016.6
20260905231018 77 86 3.0 10.0 0.00 0.02 0.02 79 1016.4
20260905230520 77 55 5.0 11.0 0.00 0.02 0.02 79 1016.4
20260905230042 77 65 5.0 11.0 0.00 0.02 0.02 79 1016.4
20260905225519 77 71 4.0 8.0 0.00 0.03 0.02 78 1016.5
20260905225020 78 100 3.0 10.0 0.00 0.03 0.02 79 1016.5
20260905224536 78 105 3.0 10.0 0.00 0.03 0.02 78 1016.6
20260905224020 78 95 5.0 11.0 0.00 0.03 0.02 77 1016.6
20260905223518 78 49 2.0 11.0 0.00 0.03 0.02 80 1016.4
20260905223042 77 61 2.0 10.0 0.00 0.03 0.02 80 1016.4
20260905222523 77 94 5.0 10.0 0.00 0.03 0.02 79 1016.5
20260905222022 77 112 4.0 10.0 0.00 0.03 0.02 79 1016.4
20260905221541 77 107 5.0 12.0 0.00 0.03 0.02 80 1016.4
20260905221020 77 101 5.0 12.0 0.00 0.03 0.02 80 1016.3
20260905220520 77 96 4.0 9.0 0.00 0.03 0.02 80 1016.4
20260905220038 77 69 4.0 11.0 0.00 0.03 0.02 80 1016.6
20260905215520 77 101 5.0 12.0 0.00 0.03 0.02 80 1016.7
20260905215016 77 72 7.0 12.0 0.00 0.03 0.02 79 1016.7
20260905214537 78 77 4.0 11.0 0.00 0.03 0.02 79 1017.0
20260905214020 78 80 2.0 11.0 0.00 0.03 0.02 79 1017.2
20260905213523 78 67 5.0 11.0 0.00 0.03 0.02 78 1017.2
20260905213037 78 109 2.0 9.0 0.00 0.03 0.02 80 1017.1
20260905212518 78 80 4.0 9.0 0.00 0.03 0.02 79 1017.2
20260905212020 78 80 4.0 9.0 0.00 0.03 0.02 79 1017.4
20260905211541 78 74 4.0 8.0 0.00 0.03 0.02 78 1017.4
20260905211018 78 66 4.0 8.0 0.00 0.03 0.02 77 1017.5
20260905210517 78 66 4.0 11.0 0.00 0.03 0.02 77 1017.6
20260905210049 78 62 3.0 11.0 0.00 0.03 0.02 77 1017.6
20260905205520 78 78 6.0 11.0 0.00 0.03 0.02 78 1017.6
20260905205018 78 104 2.0 10.0 0.00 0.03 0.02 77 1017.7
20260905204539 78 103 4.0 10.0 0.00 0.03 0.02 79 1017.7
20260905204020 78 75 4.0 10.0 0.00 0.03 0.02 79 1017.8
20260905203516 78 69 5.0 10.0 0.00 0.03 0.02 79 1018.0
20260905203052 78 32 4.0 9.0 0.00 0.03 0.02 78 1018.1
20260905202520 78 86 2.0 6.0 0.00 0.03 0.02 80 1018.1
20260905202021 78 73 2.0 5.0 0.00 0.03 0.02 80 1018.1
20260905201537 78 82 3.0 6.0 0.00 0.03 0.02 79 1018.2
20260905201020 79 111 1.0 7.0 0.00 0.03 0.02 78 1018.2
20260905200517 79 77 3.0 7.0 0.00 0.03 0.02 77 1018.2
20260905200038 80 226 1.0 6.0 0.00 0.03 0.02 78 1018.2
20260905195522 79 165 2.0 6.0 0.00 0.03 0.02 78 1018.1
20260905195025 79 124 3.0 8.0 0.00 0.03 0.02 77 1018.0
20260905194539 79 155 1.0 8.0 0.00 0.03 0.02 78 1018.0
20260905194019 78 101 2.0 8.0 0.00 0.03 0.02 78 1018.0
20260905193518 78 75 3.0 9.0 0.00 0.03 0.02 82 1017.8
20260905193038 78 108 4.0 9.0 0.00 0.03 0.02 79 1017.8
20260905192520 78 104 3.0 8.0 0.00 0.03 0.02 79 1017.9
20260905192021 78 169 2.0 7.0 0.00 0.03 0.02 79 1018.1
20260905191542 77 134 2.0 7.0 0.00 0.03 0.02 80 1018.0
20260905191018 77 115 2.0 7.0 0.00 0.03 0.02 83 1018.0
20260905190520 77 105 4.0 7.0 0.00 0.03 0.02 81 1018.0
20260905190041 77 159 1.0 6.0 0.00 0.03 0.02 83 1018.1
20260905185518 76 68 3.0 6.0 0.00 0.03 0.02 82 1018.3
20260905185021 76 115 2.0 6.0 0.00 0.03 0.02 82 1018.4
20260905184546 76 97 1.0 4.0 0.00 0.03 0.02 81 1018.5
20260905184024 76 109 2.0 4.0 0.00 0.03 0.02 82 1018.6
20260905183519 76 0 0.0 4.0 0.00 0.03 0.02 82 1018.7
20260905183037 76 124 1.0 4.0 0.00 0.03 0.02 84 1018.5
20260905182518 76 0 1.0 4.0 0.00 0.03 0.02 85 1018.6
20260905182021 76 117 1.0 3.0 0.00 0.03 0.02 84 1018.5
20260905181539 75 0 0.0 3.0 0.00 0.03 0.02 86 1018.6
20260905181017 75 118 1.0 3.0 0.00 0.03 0.02 85 1018.6
20260905180520 74 0 0.0 3.0 0.00 0.03 0.02 86 1018.7
20260905180041 74 120 1.0 3.0 0.00 0.03 0.02 85 1018.7
20260905175518 74 120 1.0 3.0 0.00 0.03 0.02 86 1018.7
20260905175019 74 0 1.0 5.0 0.00 0.03 0.02 85 1018.6
20260905174538 75 109 2.0 5.0 0.00 0.03 0.02 84 1018.8
20260905174019 75 153 1.0 4.0 0.00 0.03 0.02 85 1018.8
20260905173519 74 172 0.0 4.0 0.00 0.03 0.02 86 1018.9
20260905173041 74 105 1.0 4.0 0.00 0.03 0.02 86 1018.8
20260905172520 74 122 2.0 6.0 0.00 0.03 0.02 87 1018.9
20260905172021 74 98 2.0 6.0 0.01 0.03 0.02 86 1018.9
20260905171553 74 109 1.0 8.0 0.01 0.03 0.02 85 1019.0
20260905171017 74 254 1.0 8.0 0.01 0.03 0.02 87 1018.8
20260905170520 74 96 2.0 8.0 0.01 0.03 0.02 85 1018.8
20260905170040 74 118 1.0 6.0 0.01 0.03 0.02 86 1018.7
20260905165520 74 111 1.0 6.0 0.01 0.03 0.02 87 1018.6
20260905165020 74 94 2.0 6.0 0.01 0.03 0.02 86 1018.6
20260905164544 74 121 2.0 6.0 0.01 0.03 0.02 87 1018.7
20260905164020 74 101 2.0 7.0 0.01 0.03 0.02 87 1018.7
20260905163521 74 103 2.0 7.0 0.01 0.03 0.02 87 1018.7
20260905163049 74 173 0.0 7.0 0.01 0.03 0.02 88 1018.6
20260905162519 74 92 1.0 7.0 0.01 0.03 0.02 88 1018.6
20260905162021 73 126 2.0 7.0 0.00 0.02 0.01 89 1018.5
20260905161539 73 103 3.0 7.0 0.00 0.02 0.01 89 1018.5
20260905161020 73 139 2.0 7.0 0.00 0.02 0.01 89 1018.5
20260905160520 73 108 3.0 7.0 0.00 0.02 0.01 89 1018.5
20260905160040 73 106 3.0 8.0 0.00 0.02 0.01 89 1018.5
20260905155519 73 117 3.0 8.0 0.00 0.02 0.01 89 1018.5
20260905155018 73 102 1.0 7.0 0.00 0.02 0.01 90 1018.4
20260905154545 73 102 2.0 7.0 0.00 0.02 0.01 89 1018.5
20260905154019 73 143 2.0 6.0 0.00 0.02 0.01 90 1018.5
20260905153518 73 92 3.0 6.0 0.00 0.02 0.01 90 1018.6
20260905153041 73 0 1.0 4.0 0.00 0.02 0.01 90 1018.6
20260905152521 73 161 0.0 3.0 0.00 0.02 0.01 90 1018.7
20260905152021 72 34 1.0 3.0 0.00 0.02 0.01 91 1018.7
20260905151540 72 56 2.0 4.0 0.00 0.02 0.01 90 1018.6
20260905151019 72 0 1.0 4.0 0.00 0.02 0.01 91 1018.6
20260905150524 72 90 2.0 4.0 0.00 0.02 0.01 91 1018.5
20260905150043 72 91 0.0 6.0 0.00 0.02 0.01 91 1018.4
20260905145520 72 0 1.0 6.0 0.00 0.02 0.01 91 1018.4
20260905145020 72 99 1.0 4.0 0.00 0.02 0.01 91 1018.3
20260905144541 72 99 0.0 6.0 0.00 0.02 0.01 92 1018.2
20260905144020 72 99 1.0 6.0 0.00 0.02 0.01 92 1018.1
20260905143524 72 74 1.0 6.0 0.00 0.02 0.01 92 1018.1